{"data":{"norad_id":58045,"epoch":"2026-09-20T11:44:09.752064Z","epoch_age_seconds":138562,"freshness":"FRESH","line1":"1 58045U 23156T   26263.48900176 -.00000207  00000+0  50032-5 0  9997","line2":"2 58045  53.1588 173.4570 0000781 142.8173 217.2884 15.34387811167246","mean_motion":15.34387811,"eccentricity":7.81e-5,"inclination_deg":53.1588,"raan_deg":173.457,"arg_perigee_deg":142.8173,"mean_anomaly_deg":217.2884,"bstar":5.0032e-6,"rev_number":16724,"period_min":93.848503597113,"perigee_km":462.20519627144,"apogee_km":463.27374117586,"semimajor_km":6840.8764687236,"source":"CELESTRAK","updated_at":"2026-09-21T09:00:33.775971Z"}}